TIANWANG 1B (TW-1B)
1 40927U 15051C   19198.52360446  .00007291  00000-0  11190-3 0  9996
2 40927  97.1366 243.9778 0006253 276.3022 221.6573 15.54566427214495
TIANWANG 1A (TW-1A)
1 40928U 15051D   19198.06268907  .00002086  00000-0  52679-4 0  9990
2 40928  97.1440 228.7381 0010500 339.8533  79.2948 15.40894558213544
LAPAN A2
1 40931U 15052B   19196.40392361  .00000053  00000-0 -81873-4 0  9994
2 40931   6.0031 226.1704 0013055 172.7605  27.7428 14.76605555205217
LQSAT
1 40958U 15057A   19197.41350644 -.00000029  00000-0  31393-5 0  9994
2 40958  97.8975 265.8600 0018958 148.7352 211.4988 14.73083649202889
CHUBUSAT 2
1 41338U 16012B   19197.63752914  .00000226  00000-0  10854-4 0  9995
2 41338  31.0039 327.1719 0013804  19.2695 340.8460 15.00158819187116
CHUBUSAT 3
1 41339U 16012C   19197.80334311  .00000200  00000-0  87983-5 0  9992
2 41339  31.0124 324.1761 0013591  28.4829 331.6549 15.00334000187136
OUFTI-1
1 41458U 16025C   19198.16190400  .00000119  00000-0  10829-4 0  9990
2 41458  98.1021 286.4534 0164880 261.2863  96.9657 15.05845584176856
E-STAR-2
1 41459U 16025D   19198.18512274  .00001294  00000-0  70501-4 0  9998
2 41459  98.1034 286.1225 0166790 262.5359  95.6898 15.05489232176836
AAUSAT 4
1 41460U 16025E   19198.19171281  .00001272  00000-0  68058-4 0  9990
2 41460  98.0976 287.4425 0156574 254.9175 103.4731 15.07376825176961
NUSAT 1
1 41557U 16033B   19198.15235835  .00000732  00000-0  30125-4 0  9992
2 41557  97.4183 285.4876 0013488 190.4855 169.6105 15.27251397174431
BEESAT 4
1 41619U 16040W   19197.82992905 +.00000835 +00000-0 +38257-4 0  9998
2 41619 097.3659 259.5280 0009627 287.3292 072.6891 15.23170166158144
PRATHAM
1 41783U 16059A   19197.16198123  .00000026  00000-0  14327-4 0  9991
2 41783  98.0658 256.1351 0032293 298.7881  61.0079 14.62999325149564
ALSAT 1N
1 41789U 16059G   19198.08392373  .00000059  00000-0  20302-4 0  9998
2 41789  98.0678 259.0914 0027153 284.8406  74.9799 14.64249843149801
NAYIF 1
1 42017U 17008BX  19197.77109117  .00000953  00000-0  40369-4 0  9993
2 42017  97.4018 264.5748 0007880  75.4634 284.7478 15.25576232134201
MAX VALIER SAT
1 42778U 17036P   19197.46989826  .00000635  00000-0  30714-4 0  9997
2 42778  97.3527 254.5226 0013937 122.9644 237.2935 15.22045431114464
